owner,sensor,date,latitude,longitude,sea_surface_height_above_sea_level,qcFlag 
TCOON,ioos:station:TCOON:031:1,2014-07-01T00:12:00Z,28.4073,-96.7122,0.659,1111122 
TCOON,ioos:station:TCOON:031:1,2014-07-01T01:12:00Z,28.4073,-96.7122,0.654,1111122 
TCOON,ioos:station:TCOON:031:1,2014-07-01T02:12:00Z,28.4073,-96.7122,0.651,1111122 
TCOON,ioos:station:TCOON:031:1,2014-07-01T03:12:00Z,28.4073,-96.7122,0.662,1111122 
TCOON,ioos:station:TCOON:031:1,2014-07-01T04:12:00Z,28.4073,-96.7122,0.657,1111122 
TCOON,ioos:station:TCOON:031:1,2014-07-01T05:12:00Z,28.4073,-96.7122,0.655,1111122 
TCOON,ioos:station:TCOON:031:1,2014-07-01T06:36:00Z,28.4073,-96.7122,0.651,1111122 
TCOON,ioos:station:TCOON:031:1,2014-07-01T07:12:00Z,28.4073,-96.7122,0.66,1111122 
TCOON,ioos:station:TCOON:031:1,2014-07-01T08:12:00Z,28.4073,-96.7122,0.646,1111122 
TCOON,ioos:station:TCOON:031:1,2014-07-01T09:12:00Z,28.4073,-96.7122,0.64,1111122 
TCOON,ioos:station:TCOON:031:1,2014-07-01T10:12:00Z,28.4073,-96.7122,0.606,1111122 
TCOON,ioos:station:TCOON:031:1,2014-07-01T11:12:00Z,28.4073,-96.7122,0.572,1111122 
TCOON,ioos:station:TCOON:031:1,2014-07-01T12:12:00Z,28.4073,-96.7122,0.558,1111122 
TCOON,ioos:station:TCOON:031:1,2014-07-01T13:12:00Z,28.4073,-96.7122,0.548,1111122 
TCOON,ioos:station:TCOON:031:1,2014-07-01T14:12:00Z,28.4073,-96.7122,0.559,1111122 
TCOON,ioos:station:TCOON:031:1,2014-07-01T15:12:00Z,28.4073,-96.7122,0.555,1111122 
TCOON,ioos:station:TCOON:031:1,2014-07-01T16:12:00Z,28.4073,-96.7122,0.556,1111122 
TCOON,ioos:station:TCOON:031:1,2014-07-01T17:12:00Z,28.4073,-96.7122,0.547,1111122 
TCOON,ioos:station:TCOON:031:1,2014-07-01T18:12:00Z,28.4073,-96.7122,0.543,1111122 
TCOON,ioos:station:TCOON:031:1,2014-07-01T19:12:00Z,28.4073,-96.7122,0.544,1111122 
TCOON,ioos:station:TCOON:031:1,2014-07-01T20:06:00Z,28.4073,-96.7122,0.554,1111122 
TCOON,ioos:station:TCOON:031:1,2014-07-01T21:12:00Z,28.4073,-96.7122,0.573,1111122 
TCOON,ioos:station:TCOON:031:1,2014-07-01T22:12:00Z,28.4073,-96.7122,0.578,1111122 
TCOON,ioos:station:TCOON:031:1,2014-07-01T23:12:00Z,28.4073,-96.7122,0.57,1111122 
TCOON,ioos:station:TCOON:031:1,2014-07-02T00:12:00Z,28.4073,-96.7122,0.565,1111122 
TCOON,ioos:station:TCOON:031:1,2014-07-02T01:12:00Z,28.4073,-96.7122,0.565,1111122 
TCOON,ioos:station:TCOON:031:1,2014-07-02T02:12:00Z,28.4073,-96.7122,0.573,1111122 
TCOON,ioos:station:TCOON:031:1,2014-07-02T03:12:00Z,28.4073,-96.7122,0.563,1111122 
TCOON,ioos:station:TCOON:031:1,2014-07-02T04:12:00Z,28.4073,-96.7122,0.547,1111122 
TCOON,ioos:station:TCOON:031:1,2014-07-02T05:12:00Z,28.4073,-96.7122,0.523,1111122 
TCOON,ioos:station:TCOON:031:1,2014-07-02T06:42:00Z,28.4073,-96.7122,0.513,1111122 
TCOON,ioos:station:TCOON:031:1,2014-07-02T07:12:00Z,28.4073,-96.7122,0.519,1111122 
TCOON,ioos:station:TCOON:031:1,2014-07-02T08:12:00Z,28.4073,-96.7122,0.532,1111122 
TCOON,ioos:station:TCOON:031:1,2014-07-02T09:12:00Z,28.4073,-96.7122,0.524,1111122 
TCOON,ioos:station:TCOON:031:1,2014-07-02T10:12:00Z,28.4073,-96.7122,0.496,1111122 
TCOON,ioos:station:TCOON:031:1,2014-07-02T11:12:00Z,28.4073,-96.7122,0.466,1111122 
TCOON,ioos:station:TCOON:031:1,2014-07-02T12:12:00Z,28.4073,-96.7122,0.475,1111122 
TCOON,ioos:station:TCOON:031:1,2014-07-02T13:12:00Z,28.4073,-96.7122,0.477,1111122 
TCOON,ioos:station:TCOON:031:1,2014-07-02T14:12:00Z,28.4073,-96.7122,0.455,1111122 
TCOON,ioos:station:TCOON:031:1,2014-07-02T15:06:00Z,28.4073,-96.7122,0.438,1111122 
TCOON,ioos:station:TCOON:031:1,2014-07-02T16:12:00Z,28.4073,-96.7122,0.438,1111122 
TCOON,ioos:station:TCOON:031:1,2014-07-02T17:12:00Z,28.4073,-96.7122,0.463,1111122 
TCOON,ioos:station:TCOON:031:1,2014-07-02T18:12:00Z,28.4073,-96.7122,0.485,1111122 
TCOON,ioos:station:TCOON:031:1,2014-07-02T19:12:00Z,28.4073,-96.7122,0.493,1111122 
TCOON,ioos:station:TCOON:031:1,2014-07-02T20:12:00Z,28.4073,-96.7122,0.499,1111122 
TCOON,ioos:station:TCOON:031:1,2014-07-02T21:12:00Z,28.4073,-96.7122,0.496,1111122 
TCOON,ioos:station:TCOON:031:1,2014-07-02T22:12:00Z,28.4073,-96.7122,0.484,1111122 
TCOON,ioos:station:TCOON:031:1,2014-07-02T23:12:00Z,28.4073,-96.7122,0.491,1111122 
TCOON,ioos:station:TCOON:031:1,2014-07-03T00:12:00Z,28.4073,-96.7122,0.515,1111122 
TCOON,ioos:station:TCOON:031:1,2014-07-03T01:12:00Z,28.4073,-96.7122,0.506,1111122 
TCOON,ioos:station:TCOON:031:1,2014-07-03T02:12:00Z,28.4073,-96.7122,0.492,1111122 
TCOON,ioos:station:TCOON:031:1,2014-07-03T03:06:00Z,28.4073,-96.7122,0.469,1111122 
TCOON,ioos:station:TCOON:031:1,2014-07-03T04:12:00Z,28.4073,-96.7122,0.474,1111122 
TCOON,ioos:station:TCOON:031:1,2014-07-03T05:12:00Z,28.4073,-96.7122,0.471,1111122 
TCOON,ioos:station:TCOON:031:1,2014-07-03T06:12:00Z,28.4073,-96.7122,0.468,1111122 
TCOON,ioos:station:TCOON:031:1,2014-07-03T07:12:00Z,28.4073,-96.7122,0.483,1111122 
TCOON,ioos:station:TCOON:031:1,2014-07-03T08:12:00Z,28.4073,-96.7122,0.486,1111122 
TCOON,ioos:station:TCOON:031:1,2014-07-03T09:12:00Z,28.4073,-96.7122,0.461,1111122 
TCOON,ioos:station:TCOON:031:1,2014-07-03T10:12:00Z,28.4073,-96.7122,0.436,1111122 
TCOON,ioos:station:TCOON:031:1,2014-07-03T11:12:00Z,28.4073,-96.7122,0.417,1111122 
TCOON,ioos:station:TCOON:031:1,2014-07-03T12:12:00Z,28.4073,-96.7122,0.401,1111122 
TCOON,ioos:station:TCOON:031:1,2014-07-03T13:12:00Z,28.4073,-96.7122,0.392,1111122 
TCOON,ioos:station:TCOON:031:1,2014-07-03T14:12:00Z,28.4073,-96.7122,0.385,1111122 
TCOON,ioos:station:TCOON:031:1,2014-07-03T15:12:00Z,28.4073,-96.7122,0.389,1111122 
TCOON,ioos:station:TCOON:031:1,2014-07-03T16:12:00Z,28.4073,-96.7122,0.386,1111122 
TCOON,ioos:station:TCOON:031:1,2014-07-03T17:06:00Z,28.4073,-96.7122,0.393,1111122 
TCOON,ioos:station:TCOON:031:1,2014-07-03T18:12:00Z,28.4073,-96.7122,0.42,1111122 
TCOON,ioos:station:TCOON:031:1,2014-07-03T19:12:00Z,28.4073,-96.7122,0.412,1111122 
TCOON,ioos:station:TCOON:031:1,2014-07-03T20:12:00Z,28.4073,-96.7122,0.438,1111122 
TCOON,ioos:station:TCOON:031:1,2014-07-03T21:12:00Z,28.4073,-96.7122,0.452,1111122 
TCOON,ioos:station:TCOON:031:1,2014-07-03T22:12:00Z,28.4073,-96.7122,0.45,1111122 
TCOON,ioos:station:TCOON:031:1,2014-07-03T23:12:00Z,28.4073,-96.7122,0.447,1111122 
TCOON,ioos:station:TCOON:031:1,2014-07-04T00:12:00Z,28.4073,-96.7122,0.461,1111122 
TCOON,ioos:station:TCOON:031:1,2014-07-04T01:12:00Z,28.4073,-96.7122,0.449,1111122 
TCOON,ioos:station:TCOON:031:1,2014-07-04T02:12:00Z,28.4073,-96.7122,0.447,1111122 
TCOON,ioos:station:TCOON:031:1,2014-07-04T03:12:00Z,28.4073,-96.7122,0.419,1111122 
TCOON,ioos:station:TCOON:031:1,2014-07-04T04:12:00Z,28.4073,-96.7122,0.419,1111122 
TCOON,ioos:station:TCOON:031:1,2014-07-04T05:12:00Z,28.4073,-96.7122,0.432,1111122 
TCOON,ioos:station:TCOON:031:1,2014-07-04T06:36:00Z,28.4073,-96.7122,0.453,1111122 
TCOON,ioos:station:TCOON:031:1,2014-07-04T07:12:00Z,28.4073,-96.7122,0.462,1111122 
TCOON,ioos:station:TCOON:031:1,2014-07-04T08:12:00Z,28.4073,-96.7122,0.428,1111122 
TCOON,ioos:station:TCOON:031:1,2014-07-04T09:12:00Z,28.4073,-96.7122,0.403,1111122 
TCOON,ioos:station:TCOON:031:1,2014-07-04T10:12:00Z,28.4073,-96.7122,0.389,1111122 
TCOON,ioos:station:TCOON:031:1,2014-07-04T11:12:00Z,28.4073,-96.7122,0.384,1111122 
TCOON,ioos:station:TCOON:031:1,2014-07-04T12:12:00Z,28.4073,-96.7122,0.363,1111122 
TCOON,ioos:station:TCOON:031:1,2014-07-04T13:12:00Z,28.4073,-96.7122,0.352,1111122 
TCOON,ioos:station:TCOON:031:1,2014-07-04T14:12:00Z,28.4073,-96.7122,0.35,1111122 
TCOON,ioos:station:TCOON:031:1,2014-07-04T15:12:00Z,28.4073,-96.7122,0.374,1111122 
TCOON,ioos:station:TCOON:031:1,2014-07-04T16:12:00Z,28.4073,-96.7122,0.39,1111122 
TCOON,ioos:station:TCOON:031:1,2014-07-04T17:12:00Z,28.4073,-96.7122,0.403,1111122 
TCOON,ioos:station:TCOON:031:1,2014-07-04T18:12:00Z,28.4073,-96.7122,0.411,1111122 
TCOON,ioos:station:TCOON:031:1,2014-07-04T19:12:00Z,28.4073,-96.7122,0.429,1111122 
TCOON,ioos:station:TCOON:031:1,2014-07-04T20:12:00Z,28.4073,-96.7122,0.424,1111122 
TCOON,ioos:station:TCOON:031:1,2014-07-04T21:12:00Z,28.4073,-96.7122,0.433,1111122 
TCOON,ioos:station:TCOON:031:1,2014-07-04T22:12:00Z,28.4073,-96.7122,0.439,1111122 
TCOON,ioos:station:TCOON:031:1,2014-07-04T23:12:00Z,28.4073,-96.7122,0.427,1111122 
TCOON,ioos:station:TCOON:031:1,2014-07-05T00:12:00Z,28.4073,-96.7122,0.419,1111122 
TCOON,ioos:station:TCOON:031:1,2014-07-05T01:12:00Z,28.4073,-96.7122,0.42,1111122 
TCOON,ioos:station:TCOON:031:1,2014-07-05T02:12:00Z,28.4073,-96.7122,0.4,1111122 
TCOON,ioos:station:TCOON:031:1,2014-07-05T03:12:00Z,28.4073,-96.7122,0.395,1111122 
TCOON,ioos:station:TCOON:031:1,2014-07-05T04:06:00Z,28.4073,-96.7122,0.384,1111122 
TCOON,ioos:station:TCOON:031:1,2014-07-05T05:12:00Z,28.4073,-96.7122,0.401,1111122 
TCOON,ioos:station:TCOON:031:1,2014-07-05T06:12:00Z,28.4073,-96.7122,0.407,1111122 
TCOON,ioos:station:TCOON:031:1,2014-07-05T07:12:00Z,28.4073,-96.7122,0.404,1111122 
TCOON,ioos:station:TCOON:031:1,2014-07-05T08:12:00Z,28.4073,-96.7122,0.397,1111122 
TCOON,ioos:station:TCOON:031:1,2014-07-05T09:12:00Z,28.4073,-96.7122,0.378,1111122 
TCOON,ioos:station:TCOON:031:1,2014-07-05T10:12:00Z,28.4073,-96.7122,0.384,1111122 
TCOON,ioos:station:TCOON:031:1,2014-07-05T11:12:00Z,28.4073,-96.7122,0.392,1111122 
TCOON,ioos:station:TCOON:031:1,2014-07-05T12:12:00Z,28.4073,-96.7122,0.386,1111122 
TCOON,ioos:station:TCOON:031:1,2014-07-05T13:12:00Z,28.4073,-96.7122,0.391,1111122 
TCOON,ioos:station:TCOON:031:1,2014-07-05T14:12:00Z,28.4073,-96.7122,0.396,1111122 
TCOON,ioos:station:TCOON:031:1,2014-07-05T15:12:00Z,28.4073,-96.7122,0.423,1111122 
TCOON,ioos:station:TCOON:031:1,2014-07-05T16:12:00Z,28.4073,-96.7122,0.432,1111122 
TCOON,ioos:station:TCOON:031:1,2014-07-05T17:06:00Z,28.4073,-96.7122,0.434,1111122 
TCOON,ioos:station:TCOON:031:1,2014-07-05T18:12:00Z,28.4073,-96.7122,0.452,1111122 
TCOON,ioos:station:TCOON:031:1,2014-07-05T19:12:00Z,28.4073,-96.7122,0.48,1111122 
TCOON,ioos:station:TCOON:031:1,2014-07-05T20:12:00Z,28.4073,-96.7122,0.459,1111122 
TCOON,ioos:station:TCOON:031:1,2014-07-05T21:12:00Z,28.4073,-96.7122,0.488,1111122 
TCOON,ioos:station:TCOON:031:1,2014-07-05T22:12:00Z,28.4073,-96.7122,0.473,1111122 
TCOON,ioos:station:TCOON:031:1,2014-07-05T23:12:00Z,28.4073,-96.7122,0.447,1111122 
TCOON,ioos:station:TCOON:031:1,2014-07-06T00:12:00Z,28.4073,-96.7122,0.476,1111122 
TCOON,ioos:station:TCOON:031:1,2014-07-06T01:06:00Z,28.4073,-96.7122,0.443,1111122 
TCOON,ioos:station:TCOON:031:1,2014-07-06T02:12:00Z,28.4073,-96.7122,0.464,1111122 
TCOON,ioos:station:TCOON:031:1,2014-07-06T03:12:00Z,28.4073,-96.7122,0.454,1111122 
TCOON,ioos:station:TCOON:031:1,2014-07-06T04:12:00Z,28.4073,-96.7122,0.451,1111122 
TCOON,ioos:station:TCOON:031:1,2014-07-06T05:12:00Z,28.4073,-96.7122,0.45,1111122 
TCOON,ioos:station:TCOON:031:1,2014-07-06T06:36:00Z,28.4073,-96.7122,0.449,1111122 
TCOON,ioos:station:TCOON:031:1,2014-07-06T07:12:00Z,28.4073,-96.7122,0.448,1111122 
TCOON,ioos:station:TCOON:031:1,2014-07-06T08:12:00Z,28.4073,-96.7122,0.451,1111122 
TCOON,ioos:station:TCOON:031:1,2014-07-06T09:12:00Z,28.4073,-96.7122,0.439,1111122 
TCOON,ioos:station:TCOON:031:1,2014-07-06T10:12:00Z,28.4073,-96.7122,0.437,1111122 
TCOON,ioos:station:TCOON:031:1,2014-07-06T11:12:00Z,28.4073,-96.7122,0.455,1111122 
TCOON,ioos:station:TCOON:031:1,2014-07-06T12:12:00Z,28.4073,-96.7122,0.44,1111122 
TCOON,ioos:station:TCOON:031:1,2014-07-06T13:12:00Z,28.4073,-96.7122,0.45,1111122 
TCOON,ioos:station:TCOON:031:1,2014-07-06T14:12:00Z,28.4073,-96.7122,0.451,1111122 
TCOON,ioos:station:TCOON:031:1,2014-07-06T15:12:00Z,28.4073,-96.7122,0.463,1111122 
TCOON,ioos:station:TCOON:031:1,2014-07-06T16:12:00Z,28.4073,-96.7122,0.457,1111122 
TCOON,ioos:station:TCOON:031:1,2014-07-06T17:12:00Z,28.4073,-96.7122,0.46,1111122 
TCOON,ioos:station:TCOON:031:1,2014-07-06T18:06:00Z,28.4073,-96.7122,0.472,1111122 
TCOON,ioos:station:TCOON:031:1,2014-07-06T19:12:00Z,28.4073,-96.7122,0.501,1111122 
TCOON,ioos:station:TCOON:031:1,2014-07-06T20:12:00Z,28.4073,-96.7122,0.503,1111122 
TCOON,ioos:station:TCOON:031:1,2014-07-06T21:12:00Z,28.4073,-96.7122,0.486,1111122 
TCOON,ioos:station:TCOON:031:1,2014-07-06T22:12:00Z,28.4073,-96.7122,0.489,1111122 
TCOON,ioos:station:TCOON:031:1,2014-07-06T23:12:00Z,28.4073,-96.7122,0.488,1111122 
TCOON,ioos:station:TCOON:031:1,2014-07-07T00:12:00Z,28.4073,-96.7122,0.484,1111122 
TCOON,ioos:station:TCOON:031:1,2014-07-07T01:12:00Z,28.4073,-96.7122,0.488,1111122 
TCOON,ioos:station:TCOON:031:1,2014-07-07T02:12:00Z,28.4073,-96.7122,0.482,1111122 
TCOON,ioos:station:TCOON:031:1,2014-07-07T03:12:00Z,28.4073,-96.7122,0.482,1111122 
TCOON,ioos:station:TCOON:031:1,2014-07-07T04:12:00Z,28.4073,-96.7122,0.472,1111122 
TCOON,ioos:station:TCOON:031:1,2014-07-07T05:12:00Z,28.4073,-96.7122,0.456,1111122 
TCOON,ioos:station:TCOON:031:1,2014-07-07T06:12:00Z,28.4073,-96.7122,0.466,1111122 
TCOON,ioos:station:TCOON:031:1,2014-07-07T07:12:00Z,28.4073,-96.7122,0.484,1111122 
TCOON,ioos:station:TCOON:031:1,2014-07-07T08:12:00Z,28.4073,-96.7122,0.495,1111122 
TCOON,ioos:station:TCOON:031:1,2014-07-07T09:12:00Z,28.4073,-96.7122,0.487,1111122 
TCOON,ioos:station:TCOON:031:1,2014-07-07T10:12:00Z,28.4073,-96.7122,0.478,1111122 
TCOON,ioos:station:TCOON:031:1,2014-07-07T11:12:00Z,28.4073,-96.7122,0.473,1111122 
TCOON,ioos:station:TCOON:031:1,2014-07-07T12:12:00Z,28.4073,-96.7122,0.47,1111122 
TCOON,ioos:station:TCOON:031:1,2014-07-07T13:12:00Z,28.4073,-96.7122,0.455,1111122 
TCOON,ioos:station:TCOON:031:1,2014-07-07T14:12:00Z,28.4073,-96.7122,0.453,1111122 
TCOON,ioos:station:TCOON:031:1,2014-07-07T15:06:00Z,28.4073,-96.7122,0.456,1111122 
TCOON,ioos:station:TCOON:031:1,2014-07-07T16:12:00Z,28.4073,-96.7122,0.45,1111122 
TCOON,ioos:station:TCOON:031:1,2014-07-07T17:12:00Z,28.4073,-96.7122,0.455,1111122 
TCOON,ioos:station:TCOON:031:1,2014-07-07T18:12:00Z,28.4073,-96.7122,0.48,1111122 
TCOON,ioos:station:TCOON:031:1,2014-07-07T19:12:00Z,28.4073,-96.7122,0.481,1111122 
TCOON,ioos:station:TCOON:031:1,2014-07-07T20:06:00Z,28.4073,-96.7122,0.495,1111122 
TCOON,ioos:station:TCOON:031:1,2014-07-07T21:12:00Z,28.4073,-96.7122,0.496,1111122 
TCOON,ioos:station:TCOON:031:1,2014-07-07T22:12:00Z,28.4073,-96.7122,0.5,1111122 
TCOON,ioos:station:TCOON:031:1,2014-07-07T23:12:00Z,28.4073,-96.7122,0.493,1111122 
TCOON,ioos:station:TCOON:031:1,2014-07-08T00:12:00Z,28.4073,-96.7122,0.491,1111122 
TCOON,ioos:station:TCOON:031:1,2014-07-08T01:12:00Z,28.4073,-96.7122,0.486,1111122 
TCOON,ioos:station:TCOON:031:1,2014-07-08T02:12:00Z,28.4073,-96.7122,0.49,1111122 
TCOON,ioos:station:TCOON:031:1,2014-07-08T03:12:00Z,28.4073,-96.7122,0.477,1111122 
TCOON,ioos:station:TCOON:031:1,2014-07-08T04:12:00Z,28.4073,-96.7122,0.487,1111122 
TCOON,ioos:station:TCOON:031:1,2014-07-08T05:12:00Z,28.4073,-96.7122,0.499,1111122 
TCOON,ioos:station:TCOON:031:1,2014-07-08T06:12:00Z,28.4073,-96.7122,0.498,1111122 
TCOON,ioos:station:TCOON:031:1,2014-07-08T07:12:00Z,28.4073,-96.7122,0.498,1111122 
TCOON,ioos:station:TCOON:031:1,2014-07-08T08:12:00Z,28.4073,-96.7122,0.481,1111122 
TCOON,ioos:station:TCOON:031:1,2014-07-08T09:12:00Z,28.4073,-96.7122,0.472,1111122 
TCOON,ioos:station:TCOON:031:1,2014-07-08T10:12:00Z,28.4073,-96.7122,0.442,1111122 
TCOON,ioos:station:TCOON:031:1,2014-07-08T11:12:00Z,28.4073,-96.7122,0.427,1111122 
TCOON,ioos:station:TCOON:031:1,2014-07-08T12:12:00Z,28.4073,-96.7122,0.427,1111122 
TCOON,ioos:station:TCOON:031:1,2014-07-08T13:12:00Z,28.4073,-96.7122,0.426,1111122 
TCOON,ioos:station:TCOON:031:1,2014-07-08T14:12:00Z,28.4073,-96.7122,0.435,1111122 
TCOON,ioos:station:TCOON:031:1,2014-07-08T15:12:00Z,28.4073,-96.7122,0.449,1111122 
TCOON,ioos:station:TCOON:031:1,2014-07-08T16:06:00Z,28.4073,-96.7122,0.446,1111122 
TCOON,ioos:station:TCOON:031:1,2014-07-08T17:12:00Z,28.4073,-96.7122,0.46,1111122 
TCOON,ioos:station:TCOON:031:1,2014-07-08T18:06:00Z,28.4073,-96.7122,0.479,1111122 
TCOON,ioos:station:TCOON:031:1,2014-07-08T19:12:00Z,28.4073,-96.7122,0.492,1111122 
TCOON,ioos:station:TCOON:031:1,2014-07-08T20:12:00Z,28.4073,-96.7122,0.509,1111122 
TCOON,ioos:station:TCOON:031:1,2014-07-08T21:12:00Z,28.4073,-96.7122,0.497,1111122 
TCOON,ioos:station:TCOON:031:1,2014-07-08T22:12:00Z,28.4073,-96.7122,0.496,1111122 
TCOON,ioos:station:TCOON:031:1,2014-07-08T23:12:00Z,28.4073,-96.7122,0.493,1111122 
TCOON,ioos:station:TCOON:031:1,2014-07-09T00:12:00Z,28.4073,-96.7122,0.494,1111122 
TCOON,ioos:station:TCOON:031:1,2014-07-09T01:12:00Z,28.4073,-96.7122,0.506,1111122 
TCOON,ioos:station:TCOON:031:1,2014-07-09T02:12:00Z,28.4073,-96.7122,0.501,1111122 
TCOON,ioos:station:TCOON:031:1,2014-07-09T03:12:00Z,28.4073,-96.7122,0.491,1111122 
TCOON,ioos:station:TCOON:031:1,2014-07-09T04:12:00Z,28.4073,-96.7122,0.49,1111122 
TCOON,ioos:station:TCOON:031:1,2014-07-09T05:12:00Z,28.4073,-96.7122,0.502,1111122 
TCOON,ioos:station:TCOON:031:1,2014-07-09T06:12:00Z,28.4073,-96.7122,0.499,1111122 
TCOON,ioos:station:TCOON:031:1,2014-07-09T07:12:00Z,28.4073,-96.7122,0.483,1111122 
TCOON,ioos:station:TCOON:031:1,2014-07-09T08:12:00Z,28.4073,-96.7122,0.464,1111122 
TCOON,ioos:station:TCOON:031:1,2014-07-09T09:12:00Z,28.4073,-96.7122,0.441,1111122 
TCOON,ioos:station:TCOON:031:1,2014-07-09T10:12:00Z,28.4073,-96.7122,0.42,1111122 
TCOON,ioos:station:TCOON:031:1,2014-07-09T11:06:00Z,28.4073,-96.7122,0.412,1111122 
TCOON,ioos:station:TCOON:031:1,2014-07-09T12:12:00Z,28.4073,-96.7122,0.418,1111122 
TCOON,ioos:station:TCOON:031:1,2014-07-09T13:12:00Z,28.4073,-96.7122,0.433,1111122 
TCOON,ioos:station:TCOON:031:1,2014-07-09T14:18:00Z,28.4073,-96.7122,0.445,1111122 
TCOON,ioos:station:TCOON:031:1,2014-07-09T15:18:00Z,28.4073,-96.7122,0.441,1111122 
TCOON,ioos:station:TCOON:031:1,2014-07-09T22:18:00Z,28.4073,-96.7122,0.476,1111122 
TCOON,ioos:station:TCOON:031:1,2014-07-09T23:12:00Z,28.4073,-96.7122,0.484,1111122 
TCOON,ioos:station:TCOON:031:1,2014-07-10T00:12:00Z,28.4073,-96.7122,0.493,1111122 
TCOON,ioos:station:TCOON:031:1,2014-07-10T01:12:00Z,28.4073,-96.7122,0.473,1111122 
TCOON,ioos:station:TCOON:031:1,2014-07-10T02:12:00Z,28.4073,-96.7122,0.467,1111122 
TCOON,ioos:station:TCOON:031:1,2014-07-10T03:12:00Z,28.4073,-96.7122,0.451,1111122 
TCOON,ioos:station:TCOON:031:1,2014-07-10T04:12:00Z,28.4073,-96.7122,0.443,1111122 
TCOON,ioos:station:TCOON:031:1,2014-07-10T05:12:00Z,28.4073,-96.7122,0.444,1111122 
TCOON,ioos:station:TCOON:031:1,2014-07-10T06:12:00Z,28.4073,-96.7122,0.444,1111122 
TCOON,ioos:station:TCOON:031:1,2014-07-10T07:12:00Z,28.4073,-96.7122,0.427,1111122 
TCOON,ioos:station:TCOON:031:1,2014-07-10T08:06:00Z,28.4073,-96.7122,0.421,1111122 
TCOON,ioos:station:TCOON:031:1,2014-07-10T09:12:00Z,28.4073,-96.7122,0.405,1111122 
TCOON,ioos:station:TCOON:031:1,2014-07-10T10:12:00Z,28.4073,-96.7122,0.392,1111122 
TCOON,ioos:station:TCOON:031:1,2014-07-10T11:12:00Z,28.4073,-96.7122,0.395,1111122 
TCOON,ioos:station:TCOON:031:1,2014-07-10T12:12:00Z,28.4073,-96.7122,0.411,1111122 
TCOON,ioos:station:TCOON:031:1,2014-07-10T13:12:00Z,28.4073,-96.7122,0.547,1111122 
TCOON,ioos:station:TCOON:031:1,2014-07-10T14:12:00Z,28.4073,-96.7122,0.507,1111122 
TCOON,ioos:station:TCOON:031:1,2014-07-10T15:12:00Z,28.4073,-96.7122,0.412,1111122 
TCOON,ioos:station:TCOON:031:1,2014-07-10T16:06:00Z,28.4073,-96.7122,0.365,1111122 
TCOON,ioos:station:TCOON:031:1,2014-07-10T17:12:00Z,28.4073,-96.7122,0.381,1111122 
TCOON,ioos:station:TCOON:031:1,2014-07-10T18:12:00Z,28.4073,-96.7122,0.407,1111122 
TCOON,ioos:station:TCOON:031:1,2014-07-10T19:12:00Z,28.4073,-96.7122,0.435,1111122 
TCOON,ioos:station:TCOON:031:1,2014-07-10T20:12:00Z,28.4073,-96.7122,0.436,1111122 
TCOON,ioos:station:TCOON:031:1,2014-07-10T21:12:00Z,28.4073,-96.7122,0.44,1111122 
TCOON,ioos:station:TCOON:031:1,2014-07-10T22:12:00Z,28.4073,-96.7122,0.495,1111122 
TCOON,ioos:station:TCOON:031:1,2014-07-10T23:12:00Z,28.4073,-96.7122,0.68,1111122 
TCOON,ioos:station:TCOON:031:1,2014-07-11T00:12:00Z,28.4073,-96.7122,0.599,1111122 
TCOON,ioos:station:TCOON:031:1,2014-07-11T01:12:00Z,28.4073,-96.7122,0.423,1111122 
TCOON,ioos:station:TCOON:031:1,2014-07-11T03:12:00Z,28.4073,-96.7122,0.407,1111122 
TCOON,ioos:station:TCOON:031:1,2014-07-11T15:12:00Z,28.4073,-96.7122,0.437,1111122 
TCOON,ioos:station:TCOON:031:1,2014-07-11T16:12:00Z,28.4073,-96.7122,0.428,1111122 
TCOON,ioos:station:TCOON:031:1,2014-07-11T17:12:00Z,28.4073,-96.7122,0.428,1111122 
TCOON,ioos:station:TCOON:031:1,2014-07-11T18:12:00Z,28.4073,-96.7122,0.45,1111122 
TCOON,ioos:station:TCOON:031:1,2014-07-11T19:12:00Z,28.4073,-96.7122,0.452,1111122 
TCOON,ioos:station:TCOON:031:1,2014-07-11T20:12:00Z,28.4073,-96.7122,0.472,1111122 
TCOON,ioos:station:TCOON:031:1,2014-07-11T21:12:00Z,28.4073,-96.7122,0.472,1111122 
TCOON,ioos:station:TCOON:031:1,2014-07-11T22:12:00Z,28.4073,-96.7122,0.471,1111122 
TCOON,ioos:station:TCOON:031:1,2014-07-11T23:12:00Z,28.4073,-96.7122,0.479,1111122 
TCOON,ioos:station:TCOON:031:1,2014-07-12T00:12:00Z,28.4073,-96.7122,0.481,1111122 
TCOON,ioos:station:TCOON:031:1,2014-07-12T01:12:00Z,28.4073,-96.7122,0.482,1111122 
TCOON,ioos:station:TCOON:031:1,2014-07-12T02:12:00Z,28.4073,-96.7122,0.464,1111122 
TCOON,ioos:station:TCOON:031:1,2014-07-12T03:12:00Z,28.4073,-96.7122,0.439,1111122 
TCOON,ioos:station:TCOON:031:1,2014-07-12T04:12:00Z,28.4073,-96.7122,0.437,1111122 
TCOON,ioos:station:TCOON:031:1,2014-07-12T05:12:00Z,28.4073,-96.7122,0.431,1111122 
TCOON,ioos:station:TCOON:031:1,2014-07-12T06:12:00Z,28.4073,-96.7122,0.423,1111122 
TCOON,ioos:station:TCOON:031:1,2014-07-12T07:12:00Z,28.4073,-96.7122,0.42,1111122 
TCOON,ioos:station:TCOON:031:1,2014-07-12T08:12:00Z,28.4073,-96.7122,0.437,1111122 
TCOON,ioos:station:TCOON:031:1,2014-07-12T09:12:00Z,28.4073,-96.7122,0.414,1111122 
TCOON,ioos:station:TCOON:031:1,2014-07-12T10:12:00Z,28.4073,-96.7122,0.392,1111122 
TCOON,ioos:station:TCOON:031:1,2014-07-12T11:12:00Z,28.4073,-96.7122,0.378,1111122 
TCOON,ioos:station:TCOON:031:1,2014-07-12T12:12:00Z,28.4073,-96.7122,0.362,1111122 
TCOON,ioos:station:TCOON:031:1,2014-07-12T13:12:00Z,28.4073,-96.7122,0.357,1111122 
TCOON,ioos:station:TCOON:031:1,2014-07-12T14:12:00Z,28.4073,-96.7122,0.361,1111122 
TCOON,ioos:station:TCOON:031:1,2014-07-12T15:12:00Z,28.4073,-96.7122,0.374,1111122 
TCOON,ioos:station:TCOON:031:1,2014-07-12T16:12:00Z,28.4073,-96.7122,0.385,1111122 
TCOON,ioos:station:TCOON:031:1,2014-07-12T17:12:00Z,28.4073,-96.7122,0.389,1111122 
TCOON,ioos:station:TCOON:031:1,2014-07-12T18:12:00Z,28.4073,-96.7122,0.408,1111122 
TCOON,ioos:station:TCOON:031:1,2014-07-12T19:12:00Z,28.4073,-96.7122,0.428,1111122 
TCOON,ioos:station:TCOON:031:1,2014-07-12T20:12:00Z,28.4073,-96.7122,0.436,1111122 
TCOON,ioos:station:TCOON:031:1,2014-07-12T21:12:00Z,28.4073,-96.7122,0.445,1111122 
TCOON,ioos:station:TCOON:031:1,2014-07-12T22:12:00Z,28.4073,-96.7122,0.455,1111122 
TCOON,ioos:station:TCOON:031:1,2014-07-12T23:12:00Z,28.4073,-96.7122,0.466,1111122 
TCOON,ioos:station:TCOON:031:1,2014-07-13T00:12:00Z,28.4073,-96.7122,0.451,1111122 
TCOON,ioos:station:TCOON:031:1,2014-07-13T01:12:00Z,28.4073,-96.7122,0.455,1111122 
TCOON,ioos:station:TCOON:031:1,2014-07-13T02:12:00Z,28.4073,-96.7122,0.449,1111122 
TCOON,ioos:station:TCOON:031:1,2014-07-13T03:12:00Z,28.4073,-96.7122,0.455,1111122 
TCOON,ioos:station:TCOON:031:1,2014-07-13T04:12:00Z,28.4073,-96.7122,0.444,1111122 
TCOON,ioos:station:TCOON:031:1,2014-07-13T05:12:00Z,28.4073,-96.7122,0.419,1111122 
TCOON,ioos:station:TCOON:031:1,2014-07-13T06:30:00Z,28.4073,-96.7122,0.43,1111122 
TCOON,ioos:station:TCOON:031:1,2014-07-13T07:12:00Z,28.4073,-96.7122,0.416,1111122 
TCOON,ioos:station:TCOON:031:1,2014-07-13T08:12:00Z,28.4073,-96.7122,0.402,1111122 
TCOON,ioos:station:TCOON:031:1,2014-07-13T09:12:00Z,28.4073,-96.7122,0.387,1111122 
TCOON,ioos:station:TCOON:031:1,2014-07-13T10:12:00Z,28.4073,-96.7122,0.379,1111122 
TCOON,ioos:station:TCOON:031:1,2014-07-13T11:12:00Z,28.4073,-96.7122,0.378,1111122 
TCOON,ioos:station:TCOON:031:1,2014-07-13T12:12:00Z,28.4073,-96.7122,0.362,1111122 
TCOON,ioos:station:TCOON:031:1,2014-07-13T13:12:00Z,28.4073,-96.7122,0.352,1111122 
TCOON,ioos:station:TCOON:031:1,2014-07-13T14:12:00Z,28.4073,-96.7122,0.355,1111122 